Location: Newark
(39.6867°N, 100.6772°W)
Time: 01:00:28
(UTC+00:00)

Vanguard 1 Rocket - Pass Details

Date: 29 October 2019
Orbit: 651 x 4226 km, 34.3° (Epoch: 22 November)

Event Time Altitude Azimuth Distance (km) Brightness Sun altitude
Rises 18:55:32 0° 276° (W) 5,541 11.4 36.3°
Reaches altitude 10° 18:58:31 10° 273° (W) 4,901 11.3 36.2°
Maximum altitude 19:13:58 65° 196° (SSW) 3,677 11.7 35.6°
Drops below altitude 10° 19:39:07 10° 122° (ESE) 7,427 12.2 34.1°
Sets 19:45:01 0° 120° (ESE) 8,403 12.4 33.7°
